Regional Weather Roundup
Issued by NWS Wakefield, VA

Home | Current Version | Previous Version | Text Only | Print | Product List | Glossary On
Versions: 1 2 3 4 5 6 7 8 9 10 11 12 13 14 15 16 17 18 19 20 21 22 23 24 25 26 27 28 29 30 31 32 33 34 35 36 37 38 39 40 41 42 43 44 45 46 47 48 49 50
000
ASUS41 KAKQ 291315
RWRAKQ

REGIONAL WEATHER ROUNDUP
NATIONAL WEATHER SERVICE WAKEFIELD VA
900 AM EDT FRI MAY 29 2015

Note: "fair" indicates few or no clouds below 12,000 feet with no
significant weather and/or obstructions to visibility. * = Denotes
station may not report precipitation (e.g., rain,snow,etc.),
thunder or fog.

VAZ042-051-052>054-056-291400-
NORTHERN VIRGINIA

CITY           SKY/WX    TMP DP  RH WIND       PRES   REMARKS
WASH NATIONAL  CLOUDY    76  64  66 E9        30.27R
DULLES         MOSUNNY   74  62  66 E7        30.27R
FORT BELVOIR   CLOUDY    73  67  80 VRB2      30.27R
QUANTICO       CLOUDY    73  69  87 NE6       30.27R
FREDERICKSBRG* CLOUDY    74  73  96 NE3       30.25S
STAFFORD*      CLOUDY    73  69  88 NE7       30.30R FOG
WARRENTON      CLOUDY    73  71  93 NE6       30.26S
CULPEPER*      CLOUDY    70  67  90 N3        30.27S
MANASSAS*      CLOUDY    73  72  94 E3        30.27R
LEESBURG*      SUNNY     73  61  64 E5        30.29S
WINCHESTER     PTSUNNY   73  52  46 NE6       30.29S
FRONT ROYAL*   CLOUDY    68  61  77 CALM      30.28S
LURAY*         CLOUDY    72  68  88 NE6       30.29R
$$

VAZ048-049-060>072-079>083-291400-
CENTRAL AND SOUTH CENTRAL VIRGINIA

CITY           SKY/WX    TMP DP  RH WIND       PRES   REMARKS
RICHMOND       MOSUNNY   75  66  73 VRB5      30.25R
CHESTERFIELD*  NOT AVBL
PETERSBURG*    MOSUNNY   75  71  89 S5        30.25S
HANOVER        MOSUNNY   74  68  81 S5        30.26R
TAPPAHANNOCK*  SUNNY     75  63  64 CALM      30.26S
QUINTON*       FAIR      73  66  77 S3        30.25S
CHARLOTTSVILLE SUNNY     74  66  76 E9        30.26S
GORDONSVILLE*  CLOUDY    69  67  94 NE6       30.26R FOG
ORANGE*        CLOUDY    72  70  94 CALM      30.28R FOG
LOUISA*        MOSUNNY   73  68  83 N5        30.25R
BUMPASS*       PTSUNNY   74  69  83 CALM      30.25R
FARMVILLE*     MOSUNNY   74  70  87 CALM      30.24R
CREWE*         PTSUNNY   75  68  79 SW3       30.25S
FORT PICKETT*  FAIR      73  68  83 SW3       30.25S
CHASE CITY*    FAIR      76  71  86 CALM      30.25S
CLARKSVILLE*   FAIR      73  68  83 CALM      30.24S
SOUTH HILL*    SUNNY     72  66  80 SW5       30.31R
LAWRENCEVILLE* FAIR      72  66  83 CALM      30.25S
EMPORIA*       MOSUNNY   73  64  73 CALM      30.27R
$$

VAZ088>098-291400-
SOUTHEAST VIRGINIA

CITY           SKY/WX    TMP DP  RH WIND       PRES   REMARKS
NORFOLK        PTSUNNY   75  62  64 SW8       30.25S
VIRGINIA BEACH MOSUNNY   78  64  61 S8        30.25S
NORFOLK NAVAL  PTSUNNY   80  62  54 S5        30.27R
WEST POINT*    MOSUNNY   78  62  58 CALM      30.27S
SALUDA*        FAIR      75  66  73 S5        30.25S
NEWPORT NEWS   PTSUNNY   78  65  63 SW7       30.26R
LANGLEY AFB    PTSUNNY   75  65  71 S3        30.25R
FORT EUSTIS    MOSUNNY   74  65  72 S5        30.24S
WILLIAMSBURG*  SUNNY     77  66  69 S3        30.26S
HR EXEC AP*    FAIR      75  64  69 SW6       30.27S
FRANKLIN*      PTSUNNY   74  65  72 S6        30.26S
WAKEFIELD      SUNNY     76  66  71 S5        30.25S
$$

VAZ020-022-025-037-045-291400-
WEST CENTRAL AND SOUTHWEST VIRGINIA

CITY           SKY/WX    TMP DP  RH WIND       PRES   REMARKS
STAUNTON*      MOSUNNY   70  67  90 CALM      30.31S
WAYNESBORO*    FAIR      69  65  90 CALM      30.29S
HOT SPRINGS VA CLOUDY    63  63 100 E7        30.36S
LYNCHBURG      SUNNY     74  66  76 CALM      30.28R
DANVILLE       SUNNY     73  66  78 SW6       30.26R
SOUTH BOSTON*  FAIR      73  66  79 SW5       30.25S
MARTINSVILLE   MOSUNNY   72  70  95 NE3       30.29S
ROANOKE        MOSUNNY   72  64  76 CALM      30.29S
BLACKSBURG     PTSUNNY   70  65  83 CALM      30.34R
DUBLIN*        CLOUDY    67  67 100 CALM      30.32S FOG
MARION*        CLOUDY    64  63  96 E3        30.34S
HILLSVILLE*    NOT AVBL
RICHLANDS*     CLOUDY    68  63  83 CALM      30.30S
WISE*          CLOUDY    68  63  83 S3        30.31R
ABINGDON*      PTSUNNY   71  63  75 SE7       30.28S
$$

MDZ021>025-VAZ099-100-291400-
SOUTHERN MARYLAND AND THE DELMARVA PENINSULA

CITY           SKY/WX    TMP DP  RH WIND       PRES   REMARKS
PATUXENT RIVER MOSUNNY   75  68  78 SE5       30.25S
BAY BRIDGE APT   N/A    N/A N/A N/A E6        30.28R
LEONARDTOWN    PTSUNNY   73  66  78 CALM      30.27S
DOVER          MOSUNNY   69  62  76 E12       30.26R
GEORGETOWN     SUNNY     73  64  73 E7        30.27S
EASTON         CLOUDY    73  73 100 E6        30.30R
CAMBRIDGE      CLOUDY    73  68  83 E3        30.25S
SALISBURY      CLOUDY    72  65  78 CALM      30.27R
OCEAN CITY     PTSUNNY   70  65  84 E5        30.27S
WALLOPS ISLAND SUNNY     75  67  76 SW5       30.27S
ACCOMACK*      PTSUNNY   75  68  78 S3        30.26S
$$

NCZ012>017-030>032-291400-
NORTH CENTRAL AND EASTERN NORTH CAROLINA

CITY           SKY/WX    TMP DP  RH WIND       PRES   REMARKS
ROANOKE RAPIDS FAIR      73  64  73 S6        30.26R
RALEIGH        MOSUNNY   74  66  76 S6        30.26R
ELIZABETH CITY SUNNY     75  65  70 SW3       30.26S
AHOSKIE*       SUNNY     73  64  73 CALM      30.26S
EDENTON*       SUNNY     75  64  67 CALM      30.27R
CURRITUCK*     SUNNY     75  62  63 CALM      30.27S
KILL DEVIL HLS SUNNY     74  65  72 CALM      30.25S
MANTEO         SUNNY     75  65  72 NE6       30.26S
CAPE HATTERAS  SUNNY     77  65  66 VRB7      30.25R
TARBORO*       PTSUNNY   74  65  74 CALM      30.27S
GOLDSBORO      PTSUNNY   74  65  72 CALM      30.24R
WASHINGTON     SUNNY     74  62  66 CALM      30.27R
GREENVILLE     SUNNY     75  64  69 CALM      30.27S
NEW BERN       SUNNY     76  64  66 N5        30.27R
WILMINGTON     SUNNY     77  66  68 N8        30.23R
$$

VAZ048-291400-
ELSEWHERE

CITY           SKY/WX    TMP DP  RH WIND       PRES   REMARKS
HARRISBURG PA  SUNNY     72  56  57 SE9       30.30S
BALTIMORE      PTSUNNY   72  57  60 NE16      30.28R
ANNAPOLIS      CLOUDY    70  62  76 NE7       30.28R
ANDREWS AFB    CLOUDY    70  66  85 NE8       30.27R
PHILADELPHIA   MOSUNNY   74  56  53 E10       30.30R
HENDERSON NC   SUNNY     73  63  70 SW7       30.26S
GREENSBORO     MOSUNNY   74  67  78 W6        30.25S
ROCKY MOUNT    MOSUNNY   75  65  70 S3        30.26R
$$

VAZ100-291400-
MARINE

STATION/POSITION TIME  TEMP    WIND        PRES    WAVE   SWELL
                       AIR SEA DIR/SP/G            HT/PER HT/PER
                 (UTC) (F)     (DEG/KT/KT) (MB)    (FT/S) (FT/S)
BRANDYWINE LGT   1200   67 65   70/ 14/ 15 1025.1R
CAPE MAY NJ      1200   68 69   70/ 12/ 19 1024.6R
LEWES DE         1200   64 64   80/  8/ 10 1025.0R
15NM E FENWICK I 1250   66 63              1024.9R   3/ 8
OCEAN-CITY-INLET 1200   65 57  190/  4/  5 1024.6R
WACHAPREAGUE VA  1200   73 73  210/  5/  5 1024.5R
THOMAS POINT MD  1300   69 70   50/ 11/ 12 1025.4R
GOOSES REEF MD   1300   72 71  130/  4/  6 1025.4R   1/ 3
COVE POINT MD    1200   70     180/  6/  8 1025.0R
SOLOMONS ISLAND  1200      72                N/A
BISHOPS HEAD MD  1200   73 73  180/  4/  5 1024.4R
PINEY POINT MD   1206          200/  4/  4   N/A
CAMBRIDGE MD     1200   71 75   80/  5/  5 1024.4R
LEWISETTA VA     1200   72 75              1024.1R
RAPPAHANNOCK LGT 1200          210/  9/ 10 1025.0R
STINGRAY PT      1300   73 72  210/  4/  6 1024.4R   1
YORK RVR RNG VA  1200   72     230/  6/  7 1023.7R
YORKTOWN VA      1200   73 72  200/  5/  7 1024.0R
JAMESTOWN VA     1300   74 77     CALM     1023.4S
DOMINION TERM VA 1200   71     230/  5/  6 1024.4R
KIPTOPEKE VA     1200      75  180/  6/  7   N/A
CHES BAY BRIDGE  1200   71 66  140/  4/  5 1024.1R
CAPE HENRY VA    1200   72     220/  4/  5 1023.2R
CHESAPEAKE LGHT  1200   69     200/  7/  7 1025.1R
WILLOUBY STN VA  1206   72     230/  6/  8 1025.1R
CAPE HENRY BUOY  1228      60                N/A     2/ 9
1ST LANDING BUOY 1300      71              1024.2R
CAPE CHARLES BUO 1226      68                N/A     2/ 9   2/ 9
OFFSHORE WE BUOY 1211      66                N/A     3/ 9   3/ 9
64NM E OF VA BCH 1250   68 65   70/  4/  4 1024.6R   3/ 8   3/ 8
DUCK PIER NC     1200   67 55  110/  3/  5 1023.5R
44100 DUCK FRF   1224      69                N/A     2/ 8
44056 DUCK FRF   1211      63                N/A     2/ 9
OREGON INLET NC  1200   73 77   40/  5/  8 1024.3R
HATTERAS NC      1200   76 76   30/  5/  7 1023.5R
DIAMOND SHLS NC  1250   76 76   80/  8/  8 1024.1R   3/ 9   3/ 9
CAPE LOOKOUT NC  1300   74      40/ 11/ 12 1023.7R
$$



USA.gov is the U.S. government's official web portal to all federal, state and local government web resources and services.